Location: Banios
(43.0451°N, 0.2335°E)
Time: 14:05:17
(UTC+00:00)

A-11 Canister half - Pass Details

Date: 16 May 2021
Orbit: 1513 x 1686 km, 47.2° (Epoch: 14 June)

Event Time Altitude Azimuth Distance (km) Brightness Sun altitude
Rises 18:26:47 0° 290° (WNW) 4,658 14.2 7.6°
Reaches altitude 10° 18:29:48 10° 291° (WNW) 3,676 14.6 7.0°
Maximum altitude 18:39:06 87° 22° (NNE) 1,536 9.2 5.4°
Drops below altitude 10° 18:48:35 10° 112° (ESE) 3,750 10.4 3.8°
Sets 18:51:41 0° 113° (ESE) 4,755 10.9 3.3°
